Regional Weather Roundup
Issued by NWS

Home | Current Version | Previous Version | Text Only | Print | Product List | Glossary On
Versions: 1 2 3 4 5 6 7 8 9 10 11 12 13 14 15 16 17 18 19 20 21 22 23 24 25 26 27 28 29 30 31 32 33 34 35 36 37 38 39 40 41 42 43 44 45 46 47 48 49 50
000
ASUS44 KLIX 291213
RWRLA
LOUISIANA WEATHER ROUNDUP
NATIONAL WEATHER SERVICE NEW ORLEANS LA
700 AM CDT SAT APR 29 2017

NOTE: "FAIR" INDICATES FEW OR NO CLOUDS BELOW 12,000 FEET WITH NO
      SIGNIFICANT WEATHER AND/OR OBSTRUCTIONS TO VISIBILITY.
      SKY/WX - SKY CONDITION AND SIGNIFICANT WEATHER.
      TMP - AIR TEMPERATURE.    DP   - DEWPOINT TEMPERATURE.
      RH  - RELATIVE HUMIDITY.  PRES - PRESSURE.
      HX  - HEAT INDEX.         WCI  - WIND CHILL INDEX.

*  THESE STATIONS ARE NOT NWS OR FAA STATIONS AND ARE NOT UNDER
   NWS QUALITY CONTROL.

LAZ040-048-061>063-065-066-069-291300-
SOUTHEAST LOUISIANA

CITY           SKY/WX    TMP DP  RH WIND       PRES   REMARKS
N.O. INTL ARPT CLOUDY    77  74  90 SE15      29.90S
6HR MIN TEMP:  77; 6HR MAX TEMP:  78;

N.O. LAKEFRONT CLOUDY    77  74  90 SE15      29.92R
6HR MIN TEMP:  77; 6HR MAX TEMP:  79;

N.O. DOWNTOWN*   N/A     77  74  90 S13         N/A
6HR MIN TEMP:  77; 6HR MAX TEMP:  78;

RESERVE*       NOT AVBL
SLIDELL        CLOUDY    77  74  90 SE12      29.92R
6HR MIN TEMP:  77; 6HR MAX TEMP:  78;

BATON ROUGE    CLOUDY    78  72  81 SE14      29.87R
6HR MIN TEMP:  77; 6HR MAX TEMP:  78;

BOOTHVILLE     CLOUDY    76  75  97 SE10      29.95R FOG
6HR MIN TEMP:  75; 6HR MAX TEMP:  77;

BELLE CHASSE   MOCLDY   N/A N/A N/A SE12G18   29.91R
BOGALUSA*      NOT AVBL
GALLIANO*      CLOUDY    78  73  84 SE13G23   29.91R
6HR MIN TEMP:  77; 6HR MAX TEMP:  78;

NEW ROADS*     CLOUDY    77  72  83 SE15G21   29.86R
6HR MIN TEMP:  76; 6HR MAX TEMP:  77;

GONZALES*      CLOUDY    79  72  79 SE15G22   29.87R
6HR MIN TEMP:  78; 6HR MAX TEMP:  79;

HAMMOND*       CLOUDY    77  72  83 SE14      29.90S
HOUMA*         CLOUDY    79  73  83 SE18G28     N/A
PORT FOURCHON* MOSUNNY   77  75  94 SE16G24   29.90R FOG

$$

LAZ041-044-053-054-291300-
SOUTHWEST LOUISIANA

CITY           SKY/WX    TMP DP  RH WIND       PRES   REMARKS
LAKE CHARLES   CLOUDY    78  73  84 SE29G40   29.78S
6HR MIN TEMP:  77; 6HR MAX TEMP:  78; 6HR PCP: TRACE;

LAFAYETTE      CLOUDY    82  73  74 S13G21    29.84R
6HR MIN TEMP:  81; 6HR MAX TEMP:  82;

PATTERSON      CLOUDY    79  74  84 SE13G23   29.88R
6HR MIN TEMP:  78; 6HR MAX TEMP:  79;

SALT POINT       N/A     78  73  84 SE13G21   29.85R
6HR MIN TEMP:  77; 6HR MAX TEMP:  78;

NEW IBERIA     CLOUDY    79  71  76 SE22G28   29.85R
6HR MIN TEMP:  78; 6HR MAX TEMP:  79; 6HR PCP: TRACE;

CHENAULT AIRPK CLOUDY    65  62  89 SE22G30   29.79S
6HR MIN TEMP:  64; 6HR MAX TEMP:  67;


$$

LAZ027-028-291300-
CENTRAL LOUISIANA

CITY           SKY/WX    TMP DP  RH WIND       PRES   REMARKS
FORT POLK      CLOUDY    78  72  82 SE22G32   29.77R
6HR MIN TEMP:  78; 6HR MAX TEMP:  78;

ALEXANDRIA INT CLOUDY    78  71  79 S18G30    29.77R
6HR MIN TEMP:  77; 6HR MAX TEMP:  78;

ALEXANDRIA     CLOUDY    78  72  81 S12G22    29.80R
6HR MIN TEMP:  77; 6HR MAX TEMP:  78;


$$

LAZ001-002-291300-
NORTHWEST LOUISIANA

CITY           SKY/WX    TMP DP  RH WIND       PRES   REMARKS
SHREVEPORT     CLOUDY    78  72  81 S14G23    29.70R
6HR MIN TEMP:  78; 6HR MAX TEMP:  80;

BARKSDALE AFB  PTCLDY    77  71  80 S13       29.70R
6HR MIN TEMP:  77; 6HR MAX TEMP:  79;

DTN SHREVEPORT CLOUDY    79  70  74 S15G28    29.70R
6HR MIN TEMP:  79; 6HR MAX TEMP:  81;


$$

LAZ014-016-291300-
NORTHEAST LOUISIANA

CITY           SKY/WX    TMP DP  RH WIND       PRES   REMARKS
MONROE         CLOUDY    77  70  79 S13G22    29.79R
6HR MIN TEMP:  77; 6HR MAX TEMP:  78;

TALLULAH       MOCLDY    76  69  79 S15       29.84R
6HR MIN TEMP:  75; 6HR MAX TEMP:  77;


$$




USA.gov is the U.S. government's official web portal to all federal, state and local government web resources and services.